Regional Weather Roundup
Issued by NWS Little Rock, AR

Home | Current Version | Previous Version | Graphics & Text | Print | Product List | Glossary On
Versions: 1 2 3 4 5 6 7 8 9 10 11 12 13 14 15 16 17 18 19 20 21 22 23 24 25 26 27 28 29 30 31 32 33 34 35 36 37 38 39 40 41 42 43 44 45 46 47 48 49 50
075
ASUS44 KLZK 231905
RWRLZK

WEATHER ROUNDUP FOR ARKANSAS
NATIONAL WEATHER SERVICE LITTLE ROCK AR
200 PM CDT WED AUG 23 2017

NOTE: "FAIR" INDICATES FEW OR NO CLOUDS BELOW 12,000 FEET WITH NO
SIGNIFICANT WEATHER AND/OR OBSTRUCTIONS TO VISIBILITY.

ARZ001-003-010-029-232000-
NORTHWEST ARKANSAS

CITY           SKY/WX    TMP DP  RH WIND       PRES   REMARKS
FAYETTEVILLE   MOSUNNY   80  67  64 VRB5      30.07F
FORT SMITH     PTSUNNY   84  74  71 E7        30.03F HX  91
HARRISON       PTSUNNY   77  61  57 NE6       30.10F
BENTONVILLE    MOSUNNY   79  63  57 N10       30.09F
ROGERS         MOSUNNY   78  63  59 NE9       30.09F
HIGHFILL       PTSUNNY   80  65  59 E8        30.09F
SPRINGDALE     PTSUNNY   79  66  65 NE9       30.10F
$$

ARZ004-005-016-232000-
NORTH CENTRAL ARKANSAS

CITY           SKY/WX    TMP DP  RH WIND       PRES   REMARKS
FLIPPIN        PTSUNNY   79  57  47 NE5       30.07F
MTN HOME       MOSUNNY   77  59  53 E7        30.08F
$$

ARZ040-041-232000-
WEST CENTRAL ARKANSAS

CITY           SKY/WX    TMP DP  RH WIND       PRES   REMARKS
MENA           PTSUNNY   82  77  83 NE5       30.04F HX  91
MOUNT IDA      CLOUDY    83  68  60 VRB5      30.01F HX  86
$$

ARZ009-017-025-026-028-232000-
NORTHEAST ARKANSAS

CITY           SKY/WX    TMP DP  RH WIND       PRES   REMARKS
JONESBORO      CLOUDY    79  64  60 NE8       30.05S
NEWPORT        CLOUDY    77  67  71 NE6       30.06F
WALNUT RIDGE   PTSUNNY   79  61  53 CALM      30.06F
BLYTHEVILLE    CLOUDY    81  64  56 N7        30.04F
NW BLYTHEVILLE PTSUNNY   81  61  50 N7        30.04F
$$

ARZ022-023-033-042-044-232000-
CENTRAL ARKANSAS

CITY           SKY/WX    TMP DP  RH WIND       PRES   REMARKS
LITTLE ROCK    CLOUDY    83  73  72 NE9       30.02F HX  89
N LITTLE ROCK    N/A     82  72  71 E8        30.03F HX  86
JACKSONVILLE   CLOUDY    82  71  70 N10       30.02F HX  86
CONWAY           N/A     82  70  65 NE12      30.01F HX  86
SEARCY         CLOUDY    80  69  69 NE12      30.06S
HOT SPRINGS    PTSUNNY   84  70  62 CALM      30.01F HX  88
RUSSELLVILLE   CLOUDY    79  68  69 NE12      30.04F
CLINTON        CLOUDY    75  66  73 CALM      30.07F
$$

ARZ036-232000-
EAST ARKANSAS

CITY           SKY/WX    TMP DP  RH WIND       PRES   REMARKS
WEST MEMPHIS   CLOUDY    83  69  62 N9        30.01F HX  86
$$

ARZ050-053-066-070-073-232000-
SOUTHWEST ARKANSAS

CITY           SKY/WX    TMP DP  RH WIND       PRES   REMARKS
ARKADELPHIA    FAIR      86  74  67 NE5       30.00F HX  94
CAMDEN         MOSUNNY   90  72  55 NE5       29.97F HX  96
TEXARKANA      MOSUNNY   86  72  62 NE7       29.98F HX  92
EL DORADO      CLOUDY    89  74  60 VRB5      29.98F HX  98
DE QUEEN       CLOUDY    88  75  65 E9        29.98F HX  97
$$

ARZ056-057-069-232000-
SOUTHEAST ARKANSAS

CITY           SKY/WX    TMP DP  RH WIND       PRES   REMARKS
PINE BLUFF     CLOUDY    86  72  62 N9        29.99F HX  92
MONTICELLO     CLOUDY    89  73  59 E6        29.98F HX  97

$$






USA.gov is the U.S. government's official web portal to all federal, state and local government web resources and services.